This is the latest recevied weather packets stored in our database for station/object OK1FCB-1. If no packets are shown the sender has not sent any weather packets the latest 10 day(s).
| Time | Temp. | Humidity | Pressure | Rain* | Wind** | Luminosity | Snow |
|---|---|---|---|---|---|---|---|
| 1778116561 | 11.67° C | 82% | 1011.3 hPa | - | - | - | - |
| 1778116555 | 11.67° C | 82% | 1011.3 hPa | - | - | - | - |
| 1778114766 | 11.67° C | 81% | 1010.8 hPa | - | - | - | - |
| 1778114760 | 11.67° C | 81% | 1010.8 hPa | - | - | - | - |
| 1778112970 | 11.67° C | 81% | 1010.4 hPa | - | - | - | - |
| 1778112964 | 11.67° C | 81% | 1010.4 hPa | - | - | - | - |
| 1778112067 | 12.22° C | 81% | 1010.5 hPa | - | - | - | - |
| 1778111174 | 12.22° C | 81% | 1010.6 hPa | - | - | - | - |
| 1778111169 | 12.22° C | 81% | 1010.6 hPa | - | - | - | - |
| 1778105782 | 12.78° C | 81% | 1011.3 hPa | - | - | - | - |
| 1778102191 | 12.22° C | 80% | 1009.8 hPa | - | - | - | - |
| 1778097708 | 11.67° C | 79% | 1008.8 hPa | - | - | - | - |
| 1778097702 | 11.67° C | 79% | 1008.8 hPa | - | - | - | - |
| 1778095014 | 12.22° C | 78% | 1008.7 hPa | - | - | - | - |
| 1778095008 | 12.22° C | 78% | 1008.7 hPa | - | - | - | - |
| 1778094111 | 12.22° C | 78% | 1008.6 hPa | - | - | - | - |
| 1778093218 | 12.22° C | 77% | 1008.4 hPa | - | - | - | - |
| 1778093213 | 12.22° C | 77% | 1008.4 hPa | - | - | - | - |
| 1778091424 | 12.78° C | 76% | 1009.5 hPa | - | - | - | - |
| 1778091418 | 12.78° C | 76% | 1009.5 hPa | - | - | - | - |
| 1778090520 | 12.78° C | 76% | 1009.3 hPa | - | - | - | - |
| 1778086931 | 15° C | 68% | 1008.2 hPa | - | - | - | - |
| 1778081542 | 16.11° C | 63% | 1008.7 hPa | - | - | - | - |
| 1778080651 | 16.67° C | 62% | 1008.8 hPa | - | - | - | - |
| 1778080645 | 16.67° C | 62% | 1008.8 hPa | - | - | - | - |
* Rain since midnight (hover to see other rain measurements)
** Current wind speed in m/s (hover to see current wind gust speed)